Regional Weather Roundup
Issued by NWS

Home | Current Version | Previous Version | Text Only | Print | Product List | Glossary On
Versions: 1 2 3 4 5 6 7 8 9 10 11 12 13 14 15 16 17 18 19 20 21 22 23 24 25 26 27 28 29 30 31 32 33 34 35 36 37 38 39 40 41 42 43 44 45 46 47 48 49 50
000
ASUS46 KPQR 031710
RWROR

OREGON REGIONAL WEATHER ROUNDUP
NATIONAL WEATHER SERVICE PORTLAND OR
900 AM PST SAT DEC 03 2016

NOTE: "FAIR" INDICATES FEW OR NO CLOUDS BELOW 12,000 FEET WITH
NO SIGNIFICANT WEATHER AND/OR OBSTRUCTIONS TO VISIBILITY.

ORZ001>013-031800-
NORTHWEST OREGON


CITY           SKY/WX    TMP DP  RH WIND       PRES   REMARKS
ASTORIA        MOCLDY    47  41  80 SE8       30.34F
NEWPORT        PTSUNNY   45  45 100 CALM      30.44R FOG
PORTLAND       CLOUDY    46  44  93 SW3       30.41R
VANCOUVER WA   CLOUDY    47  44  90 CALM      30.39R
SCAPPOOSE      PTSUNNY   40  40 100 CALM      30.38F
HILLSBORO      CLOUDY    43  42  97 CALM      30.39R FOG
AURORA         DRIZZLE   44  42  93 CALM      30.42R
MCMINNVILLE    FOG       42  40  92 N3        30.41R VSB 1/4
SALEM          CLOUDY    46  43  89 CALM      30.41R
CORVALLIS        N/A     43  39  87 CALM      30.42R VSB<1/4
EUGENE         CLOUDY    43  41  93 S3        30.44R
$$

ORZ021-028-031800-
SOUTHWEST OREGON


CITY           SKY/WX    TMP DP  RH WIND       PRES   REMARKS
NORTH BEND     CLOUDY    46  46 100 SE6       30.45R VSB 1/4
BROOKINGS      MOSUNNY   44  43  96 CALM        N/A
ROSEBURG       CLOUDY    45  43  93 CALM      30.43R
SEXTON SUMMIT  FOG       35  35 100 CALM      30.34R VSB<1/4
MEDFORD        CLOUDY    43  40  89 CALM      30.41R
$$

ORZ014>016-041-031800-
COLUMBIA GORGE


CITY           SKY/WX    TMP DP  RH WIND       PRES   REMARKS
TROUTDALE      CLOUDY    47  44  90 CALM      30.40R
THE DALLES     CLOUDY    49  40  71 NW13      30.31R
$$

ORZ029>031-041-044-049-050-061>064-502-503-505>511-031800-
EASTERN OREGON


CITY           SKY/WX    TMP DP  RH WIND       PRES   REMARKS
REDMOND        SUNNY     40  27  59 NW8       30.29R WCI  34
BEND           SUNNY     36  30  80 CALM      30.28R
PRINEVILLE     SUNNY     39  30  70 NW8       30.29R WCI  34
KLAMATH FALLS  MOSUNNY   35  31  85 S3        30.33R
LAKEVIEW       CLOUDY    34  28  80 S7        30.34R WCI  28
HERMISTON      PTSUNNY   48  36  63 SW13      30.26R
PENDLETON      CLOUDY    45  33  63 SW13      30.24R
JOHN DAY       CLOUDY    34  32  91 E3        30.26R
MEACHAM        NOT AVBL
LA GRANDE      CLOUDY    36  27  69 S5        30.25R WCI  32
BAKER CITY     CLOUDY    31  27  85 W3        30.27R
BURNS          PTSUNNY   33  27  78 SW3       30.26S
ROME             N/A     39  22  50 SW6       30.27S WCI  35
ONTARIO        MOSUNNY   33  28  81 SW7       30.33R WCI  27
$$



USA.gov is the U.S. government's official web portal to all federal, state and local government web resources and services.